FENGYUN 3D (43010 NORAD) Tracking and Keplerian Element Data

This shows tracking and keplerian element data for the satellite.

Feedback or suggestion? Click here.




ElementValue
Catalog43010
NameFENGYUN 3D
Epoch Orbit5139
Epoch Day315.89857535
Epoch Year2018
RAAN253.867
Inclination98.6885
Eccentricity0.0001219
Argument of Perigee3.5352
Mean Anonmoly356.5834
Mean Motion14.19707703
Decay Rate-3.2E-07
L11 43010U 17072A 18315.89857535 -.00000032 00000-0 55907-5 0 9990
L22 43010 98.6885 253.8670 0001219 3.5352 356.5834 14.19707703 51397

Live tracking and technical data element details for FENGYUN 3D (NORAD 43010). FENGYUN 3D can be tracked NOW for your location showing map with azimuth and elevation plus other details from your city location.

Track the satellite on the map from your city or location and see movement details for azimuth, elevation, latitude, longitude, range, height, and movement on the map or in text.







IsCatalogInMostPopularTable: catalog: 43010, numindb: 161
Update: records affected: 1



GetName: 43010 FENGYUN 3D

Hit Count: updated at: Mon, 12 Nov 2018 17:40:51 GMT